Location: ??????
(55.7522°N, 37.6156°E)
Time: 11:21:55
(UTC+00:00)

USA 229 DEB - Pass Details

Date: 21 December 2025
Orbit: 844 x 1364 km, 63.4° (Epoch: 10 January)

Event Time Altitude Azimuth Distance (km) Brightness Sun altitude
Exits shadow 00:50:25 43° 102° (ESE) 1,673 4.8 -41.0°
Drops below altitude 10° 00:55:38 10° 116° (ESE) 3,299 6.6 -40.3°
Sets 00:58:37 0° 118° (ESE) 4,316 7.4 -39.9°
